Regional Weather Roundup
Issued by NWS

Home | Current Version | Previous Version | Text Only | Print | Product List | Glossary On
Versions: 1 2 3 4 5 6 7 8 9 10 11 12 13 14 15 16 17 18 19 20 21 22 23 24 25 26 27 28 29 30 31 32 33 34 35 36 37 38 39 40 41 42 43 44 45 46 47 48 49 50
000
ASUS44 KLUB 192110
RWRTX
WEST TEXAS WEATHER ROUNDUP
NATIONAL WEATHER SERVICE LUBBOCK TX
400 PM CDT FRI SEP 19 2014

NOTE: "FAIR" INDICATES FEW OR NO CLOUDS BELOW 12,000 FEET WITH NO
SIGNIFICANT WEATHER AND/OR OBSTRUCTIONS TO VISIBILITY.

TXZ004-006>008-010-012-014-016-OKZ002-192200-
TEXAS PANHANDLE/OKLAHOMA PANHANDLE

CITY           SKY/WX    TMP DP  RH WIND       PRES   REMARKS
AMARILLO       LGT RAIN  69  67  93 S13       30.02F FOG
BORGER         CLOUDY    83  62  49 S15       29.98F
CANADIAN       MOSUNNY   86  64  47 S15       29.95F
DALHART        MOSUNNY   78  62  57 S18G26    30.01F
DUMAS          MOSUNNY   80  64  57 S14G20    30.00F
GUYMON         MOSUNNY   85  62  46 S21       29.94F
HEREFORD       PTSUNNY   74  69  82 SE12      30.03F
PAMPA          PTSUNNY   82  58  44 S15G22    30.00F
PERRYTON       MOSUNNY   85  58  40 S22       29.96F
$$

TXZ026-029-035-045-048-192200-
SOUTHERN PANHANDLE/SOUTH PLAINS/ROLLING PLAINS

CITY           SKY/WX    TMP DP  RH WIND       PRES   REMARKS
CHILDRESS      MOSUNNY   83  65  54 S7        29.95F
SEMINOLE       RAIN      69  67  95 CALM      29.99S
LUBBOCK        CLOUDY    72  66  81 E13       30.00F
PLAINVIEW      CLOUDY    70  68  92 SE9       30.00F
SNYDER         CLOUDY    77  69  76 SE12      29.96F
$$

TXZ052-054-060>062-072-078-127-140-154-169-192200-
PERMIAN BASIN/CONCHO VALLEY/BIG COUNTRY/EDWARDS PLATEAU

CITY           SKY/WX    TMP DP  RH WIND       PRES   REMARKS
ABILENE        CLOUDY    83  66  56 SE10G16   29.94F
BIG SPRING     CLOUDY    76  70  80 E10       29.97F
BROWNWOOD      CLOUDY    81  72  74 SE12      29.94S
JUNCTION       PTSUNNY   81  73  76 E12       29.92S
MIDLAND        CLOUDY    75  70  84 E13       29.94F
ODESSA         CLOUDY    75  68  78 SE13      29.95F
SAN ANGELO     PTSUNNY   77  71  82 NE10      29.93F
SONORA         PTSUNNY   86  68  54 NE8       29.94F
SWEETWATER     CLOUDY    78  69  73 SE10      30.00S
WINK           PTSUNNY   77  69  76 SE8       29.91F
$$

TXZ055-058-074-075-080-082-192200-
FAR WEST/SOUTHWEST MOUNTAINS/TRANS PECOS

CITY           SKY/WX    TMP DP  RH WIND       PRES   REMARKS
ALPINE         MOSUNNY   82  62  50 SW3       30.03F
DRYDEN           N/A     94  67  41 VRB5      29.85F HX  97
EL PASO        MOSUNNY   81  61  50 W8        29.95F
FORT STOCKTON  PTSUNNY   81  71  71 E10       29.91F
GUADALUPE PASS MOSUNNY   76  64  66 W21G29    30.11R
MARFA          MOSUNNY   81  63  54 S8        30.03F
PECOS          PTSUNNY   82  71  69 E10       29.89F
PRESIDIO       FAIR      90  63  40 CALM      29.86F
$$

TXZ014-016-019-021>030-083-192200
TEXAS TECH WEST TEXAS MESONET/TEXAS PANHANDLE/NORTHERN SOUTH PLAINS

CITY           SKY/WX    TMP DP  RH WIND       PRES   REMARKS
ABERNATHY 5ENE   N/A     70  65  84 SE9       30.02F
AMARILLO 9NNE    N/A     69  67  93 W7        30.01R
AMARILLO 7SSE    N/A     69  68  96 S3        30.04S
AMHERST 1NE      N/A     73  66  77 SE9       30.01F
BOOTLEG 11WNW  LGT RAIN  67  65  94 E12       30.06S
CANADIAN 6E      N/A     86  63  46 SE16      29.94F
CAPROCK CYN SP   N/A     79  65  62 SE13      29.98F
CHILDRESS 2NNE   N/A     85  64  49 SE8       29.94F
CLARENDON 2WSW   N/A     82  62  49 SE13      29.98F
CLAUDE 12SW      N/A     75  64  69 S9        30.02S
DIMMITT 2NE      N/A     72  66  83 SE9       30.02F
FLOYDADA 2NNE    N/A     73  67  80 SE8       30.00F
FRIONA 2NE       N/A     74  64  70 SE12      30.03F
GOODLETT 3W      N/A     86  63  46 SE6       29.91F
HART 3N          N/A     73  67  80 SE14      30.02S
HEREFORD 2NW     N/A     75  63  66 SE8       30.02F
MCLEAN 1E        N/A     83  60  46 SE13      29.97F
MEMPHIS 1NE      N/A     83  63  50 SE9       29.94F
MULESHOE 2SSW    N/A     76  65  68 SE10      30.00F
OLTON 6S         N/A     70  65  84 E12       30.01S
PALO DURO SP     N/A     74  65  75 SE9       30.03F
PAMPA 2E         N/A     79  63  57 SE10      29.99F
PLAINVIEW 1S     N/A     70  67  92 SE9       30.00F
SILVERTON 7ESE   N/A     76  64  66 SE13      30.00F
TULIA 2ENE       N/A     72  66  82 SE12      30.02S
TURKEY 2WSW      N/A     81  67  62 SE12      29.96F
UMBARGER 3NNE    N/A     70  67  88 SE7       30.03F
$$

TXZ033>036-039>041-045>048-192200
TEXAS TECH WEST TEXAS MESONET/SOUTH PLAINS

CITY           SKY/WX    TMP DP  RH WIND       PRES   REMARKS
AIKEN 3WSW       N/A     73  67  82 SE9       30.01F
ANTON 6SSW       N/A     71  67  86 E13       30.00S
BROWNFIELD 2S    N/A     73  66  78 E10       29.98F
DENVR CTY 7WNW   N/A     71  63  75 SE9       29.98F
GAIL 2ESE        N/A     76  68  78 SE7       29.95S
LAMESA 2SE       N/A     73  68  86 SE9       29.97F
LEVELLAND 4S     N/A     72  66  81 E8        30.00S
LUBBOCK 3WNW     N/A     69  65  87 E7        30.00F
MORTON 1ENE      N/A     72  67  84 SE10      30.00F
ODONNELL 1N      N/A     71  65  82 SE9       29.98S
PLAINS 3N        N/A     70  65  83 SE15      30.00S
RALLS 1SE      LGT RAIN  69  68  97 E6        30.00F
REESE CENTER     N/A     68  66  92 E12       30.00F
SEAGRAVES 1SW    N/A     70  67  91 SE7       29.97F
SEMINOLE 2NNE  LGT RAIN  70  65  86 SE10      29.98S
SLATON 2NE       N/A     70  67  93 E8        29.99F
SNYDER 3E        N/A     78  69  74 E9        29.95F
SUNDOWN 8SW      N/A     70  66  87 S7        29.99F
TAHOKA 3NNE      N/A     71  67  85 E7        29.98F
WOLFFORTH 6SSW   N/A     69  68  98 E9        30.00S
$$

TXZ031-032-036>038-042>044-192200-
TEXAS TECH WEST TEXAS MESONET/ROLLING PLAINS

CITY           SKY/WX    TMP DP  RH WIND       PRES   REMARKS
ASPERMONT 3NE    N/A     82  67  62 E7        29.93F
FLUVANNA 3WNW    N/A     75  67  77 E10       29.96F
GRAHAM 5SSW      N/A     72  67  83 E7        29.97S
GUTHRIE 10WSW    N/A     79  65  63 SE7       29.94F
HASKELL 1NW      N/A     81  66  59 E7        29.92F
JAYTON 1SSE      N/A     80  67  64 E10       29.94S
KNOX CITY 3NW    N/A     83  65  54 SE7       29.92F
LK A HENRY 1NW   N/A     78  68  70 E6        29.95F
NORTHFIELD 1S    N/A     82  67  61 SE9       29.95F
ODELL 4ENE       N/A     88  65  46 SE8       29.93F
PADUCAH 10SW     N/A     82  67  60 SE9       29.94F
POST 1NE         N/A     74  67  79 E5        29.96F
RRING SPRGS 3N   N/A     78  67  70 SE6       29.98F
SEYMOUR 3NW      N/A     87  60  39 SE9       29.91F
SPUR 1W          N/A     78  66  67 E6        29.95F
WEINERT 2NNE     N/A     84  68  59 SE8       29.92F
WHITE RVR 6NE    N/A     71  70  95 N5        29.97F
$$

TXZ052-054-060>062-072-078-127-140-154-169-192200-
TEXAS TECH WEST TEXAS MESONET/PERMIAN BASIN/
CONCHO VALLEY/BIG COUNTRY/EDWARDS PLATEAU

CITY           SKY/WX    TMP DP  RH WIND       PRES   REMARKS
COYANOSA 2N      N/A     82  70  68 E10       29.90F
JUNCTION 1SSW    N/A     82  73  72 E8        29.92F
MERTZON 3NNE     N/A     75  71  87 E10       29.94F
SAN ANGELO 7NW   N/A     75  69  82 E9        29.94F
STRLNG CT 4WSW   N/A     73  70  91 E12       29.96F
ST LAWRNCE 5SW   N/A     74  69  85 E12       29.95S
SWEETWATR 11SW   N/A     75  69  81 SE9       29.99S
WALL 1E          N/A     77  70  77 E9        29.95F
$$

TXZ055-058-074-075-080-082-192200-
TEXAS TECH WEST TEXAS MESONET/FAR WEST/SOUTHWEST MOUNTAINS/TRANS PECOS

CITY           SKY/WX    TMP DP  RH WIND       PRES   REMARKS
PRSMN GAP BBNP   N/A     89  65  44 E1        29.87F
GUADLPE MTN NP   N/A     74  59  58 W12       30.05F
$$


USA.gov is the U.S. government's official web portal to all federal, state and local government web resources and services.